Home   Weather   Saarbrücken   Past weeks

Flag for Germany Past Weather in Saarbrücken, Saarland, Germany — Yesterday and Last 2 Weeks

Now
52 °F

Partly sunny.


Feels Like: 47 °F
Forecast: 46 / 53 °F
Wind: 13 mph from Southwest

Location: Saarbruecken / Ensheim

Current Time: Feb 26, 2017 at 5:59:33 pm

Latest Report: Feb 26, 2017 at 5:20 pm


Visibility: N/A

Pressure: 29.95 "Hg

Humidity: 54%

Dew Point: 36 °F

Location of SaarbrückenLocation

Past Weather in Saarbrücken — Graph

°F

Saarbrücken Temperature Yesterday

Maximum temperature yesterday: 45 °F (at 3:50 pm)
Minimum temperature yesterday: 25 °F (at 2:50 am)
Average temperature yesterday: 35 °F

High & Low Weather Summary for the Past Weeks

 TemperatureHumidityPressure
High55 °F (Feb 15, 2:50 pm)100% (Feb 11, 4:20 pm)30.54 "Hg (Feb 11, 4:20 pm)
Low25 °F (Feb 19, 7:50 am)47% (Feb 26, 2:50 pm)29.53 "Hg (Feb 23, 3:20 pm)
Average41 °F84%30.16 "Hg
* Reported Feb 11 4:20 pm — Feb 26 4:50 pm, Saarbrücken, Weather by CustomWeather, © 2017

Note: Actual official high and low records may vary slightly from our data, if they occured in-between our weather recording intervals... More about our weather records

Advertising

Saarbrücken Weather History for the Previous 24 Hours

Scroll right to see more
 ConditionsComfort  
Time TempWeatherWind HumidityBarometerVisibility
4:50 pm
Sun, Feb 26
52 °FPartly sunny.15 mph54%29.95 "HgN/A
4:20 pm54 °FPassing clouds.15 mph51%29.95 "HgN/A
3:50 pm54 °FSunny.15 mph51%29.95 "Hg10 mi
3:20 pm54 °FSunny.16 mph47%29.95 "Hg10 mi
2:50 pm54 °FPassing clouds.21 mph47%29.95 "HgN/A
2:20 pm54 °FSunny.16 mph51%29.95 "Hg10 mi
1:50 pm52 °FPassing clouds.17 mph50%29.98 "HgN/A
1:20 pm50 °FPassing clouds.13 mph54%29.98 "HgN/A
12:50 pm50 °FSunny.17 mph54%29.98 "Hg10 mi
12:20 pm48 °FPassing clouds.15 mph62%30.01 "HgN/A
11:50 am46 °FPassing clouds.15 mph62%30.01 "HgN/A
11:20 am45 °FSunny.14 mph66%30.01 "Hg10 mi
10:50 am43 °FSunny.12 mph71%30.01 "Hg10 mi
10:20 am41 °FSunny.14 mph76%30.01 "Hg10 mi
9:50 am39 °FSunny.10 mph75%30.01 "Hg10 mi
9:20 am37 °FSunny.10 mph81%30.01 "Hg10 mi
8:50 am37 °FSunny.9 mph81%30.01 "Hg10 mi
8:20 am37 °FSunny.13 mph81%30.01 "Hg10 mi
7:50 am37 °FSunny.10 mph81%30.01 "Hg10 mi
7:20 am37 °FSunny.10 mph81%30.01 "Hg10 mi
6:50 am37 °FClear.13 mph81%30.01 "Hg10 mi
6:20 am37 °FClear.12 mph81%30.01 "Hg10 mi
5:50 am36 °FClear.9 mph81%30.01 "Hg10 mi
5:20 am36 °FClear.9 mph81%30.01 "Hg10 mi
4:50 am36 °FChilly.10 mph81%30.01 "HgN/A
4:20 am37 °FPassing clouds.8 mph75%30.01 "HgN/A
3:50 am37 °FClear.6 mph75%30.01 "Hg10 mi
3:20 am36 °FClear.3 mph87%30.04 "HgN/A
2:50 am36 °FClear.2 mph87%30.04 "HgN/A
2:20 am37 °FClear.7 mph81%30.04 "HgN/A
1:50 am37 °FClear.7 mph81%30.04 "HgN/A
1:20 am37 °FClear.7 mph81%30.04 "HgN/A
12:50 am37 °FClear.8 mph81%30.04 "HgN/A
12:20 am39 °FClear.6 mph75%30.04 "HgN/A
11:50 pm
Sat, Feb 25
37 °FClear.5 mph81%30.04 "HgN/A
11:20 pm37 °FClear.5 mph81%30.07 "HgN/A
10:50 pm37 °FClear.7 mph81%30.07 "Hg10 mi
10:20 pm37 °FPassing clouds.3 mph75%30.07 "HgN/A
9:50 pm37 °FPassing clouds.3 mph75%30.07 "HgN/A
9:20 pm37 °FClear.3 mph75%30.07 "Hg10 mi
8:50 pm39 °FPassing clouds.3 mph70%30.07 "HgN/A
8:20 pm37 °FClear.5 mph81%30.07 "Hg10 mi
7:50 pm37 °FClear.3 mph81%30.09 "Hg10 mi
7:20 pm39 °FClear.2 mph75%30.09 "Hg10 mi
6:50 pm37 °FClear.3 mph81%30.09 "Hg10 mi
6:20 pm39 °FClear.5 mph75%30.09 "Hg10 mi
5:50 pm41 °FSunny.5 mph70%30.09 "Hg10 mi
5:20 pm43 °FSunny.5 mph66%30.09 "Hg10 mi
Weather by CustomWeather, © 2017

See weather overviewHow to use our weather pages

LIVE ANNULAR SOLAR ECLIPSE – Watch the eclipse as it happens